Weather in Ryabovo

Russia / Ivanovo Oblast     56°55′29″N   42°12′59″E
temp.,
°C
wind,
m/s
gust,
m/s
humid.,
%
clouds,
%
prec.,
mm/h
press.,
hPa
HPBL,
m
20 january, wed
wed2000:00−16w229798 0.2 101527
03:00−16w239790 0.3 101546
06:00−15w239784 0.1 101456
09:00−14wsw359687 0.2 1015103
12:00−11w469498 0.1 1015278
15:00−10w479597 0.3 1015310
18:00−12w489697 0.1 1016215
21:00−15w369898 0.1 1017118
21 january, thu
thu2100:00−15w3597100 0.1 1018122
03:00−14w379695 0.1 1018197
06:00−14wsw379797 0.1 1018167
09:00−13wsw479599 0.1 1018236
12:00−13sw4691100 0.0 1017265
15:00−11ssw3691100 0.0 1015339
18:00−11ssw2696100 0.6 1014331
21:00−14sw2297100 0.7 101420
22 january, fri
fri2200:00−16wsw1198100 0.0 101420
03:00−17se1198100 0.0 101520
06:00−16ese229699 0.0 101620
09:00−15se239599 0.0 101780
12:00−12se4693100 0.0 1016247
15:00−10se4894100 0.0 1016297
18:00−10se5995100 0.5 1015316
21:00−10se51095100 1.0 1015282
23 january, sat
sat2300:00−8sse5995100 1.6 1013282
03:00−3sse5996100 2.3 1012274
06:000ssw51098100 0.7 1010396
09:00+1sw49100100 1.4 1010301
12:00+1ssw49100100 0.8 1010254
15:00+1sw61098100 1.1 1010548
18:00+1ssw611100100 0.3 1010357
21:00+1sw49100100 0.6 1010269
24 january, sun
sun2400:00+1sw4899100 0.3 1011248
03:00+1ssw4899100 0.5 1011252
06:00+1ssw3899100 0.1 1012219
09:00+1ssw3699100 0.1 1013210
12:00+1ssw37100100 0.0 1013183
15:00+1s4899100 0.0 1013323
18:00+1s4998100 0.0 1013295
21:00+1sse51099100 0.1 1013301